Regional Weather Roundup
Issued by NWS Little Rock, AR

Home | Current Version | Previous Version | Graphics & Text | Print | Product List | Glossary On
Versions: 1 2 3 4 5 6 7 8 9 10 11 12 13 14 15 16 17 18 19 20 21 22 23 24 25 26 27 28
000
ASUS44 KLZK 301605
RWRLZK

WEATHER ROUNDUP FOR ARKANSAS
NATIONAL WEATHER SERVICE LITTLE ROCK AR
1100 AM CDT SAT JUL 30 2016

NOTE: "FAIR" INDICATES FEW OR NO CLOUDS BELOW 12,000 FEET WITH NO
SIGNIFICANT WEATHER AND/OR OBSTRUCTIONS TO VISIBILITY.

ARZ001-003-010-029-301700-
NORTHWEST ARKANSAS

CITY           SKY/WX    TMP DP  RH WIND       PRES   REMARKS
FAYETTEVILLE   CLOUDY    80  73  79 W5        30.04S
FORT SMITH     MOSUNNY   85  69  58 VRB3      30.00S HX  89
HARRISON       MOSUNNY   82  72  71 CALM      30.05S HX  87
BENTONVILLE    SUNNY     82  70  65 CALM      30.05S HX  86
ROGERS         MOSUNNY   82  72  71 W5        30.05S HX  87
SILOAM SPGS    CLOUDY    82  66  57 W5        30.04F HX  85
HIGHFILL       CLOUDY    83  74  74 VRB3      30.04S HX  89
SPRINGDALE     PTSUNNY   82  72  69 SW3       30.06S HX  87
$$

ARZ004-005-016-301700-
NORTH CENTRAL ARKANSAS

CITY           SKY/WX    TMP DP  RH WIND       PRES   REMARKS
BATESVILLE     SUNNY     82  72  69 CALM      30.02S HX  87
FLIPPIN        SUNNY     79  72  78 SE3       30.01S
MTN HOME       MOSUNNY   77  72  84 CALM      30.03S
$$

ARZ040-041-301700-
WEST CENTRAL ARKANSAS

CITY           SKY/WX    TMP DP  RH WIND       PRES   REMARKS
MENA             N/A    N/A N/A N/A MISG        N/A
MOUNT IDA      SUNNY     82  71  69 SE3       30.02R HX  86
$$

ARZ009-017-025-026-028-301700-
NORTHEAST ARKANSAS

CITY           SKY/WX    TMP DP  RH WIND       PRES   REMARKS
CORNING          N/A     79  77  94 W3        30.02R
JONESBORO      MOSUNNY   83  71  67 CALM      30.01R HX  87
NEWPORT        PTSUNNY   82  74  77 CALM      30.02S HX  88
WALNUT RIDGE   MOSUNNY   81  72  74 CALM      30.00S
BLYTHEVILLE    SUNNY     83  74  74 CALM      30.01R HX  89
$$

ARZ022-023-033-042-044-301700-
CENTRAL ARKANSAS

CITY           SKY/WX    TMP DP  RH WIND       PRES   REMARKS
LITTLE ROCK    PTSUNNY   85  72  65 W7        30.02S HX  91
N LITTLE ROCK    N/A     81  74  79 CALM      30.00R HX  86
JACKSONVILLE   PTSUNNY   79  73  83 VRB2      30.02S
SEARCY         CLOUDY    82  75  79 S5        30.16R HX  89
HOT SPRINGS    MOSUNNY   81  72  74 NW3       30.04R HX  85
RUSSELLVILLE   PTSUNNY   80  74  81 CALM      30.02R HX  85
$$

ARZ036-301700-
EAST ARKANSAS

CITY           SKY/WX    TMP DP  RH WIND       PRES   REMARKS
WEST MEMPHIS   CLOUDY    80  74  81 S5        30.01R HX  85
$$

ARZ050-053-066-070-073-301700-
SOUTHWEST ARKANSAS

CITY           SKY/WX    TMP DP  RH WIND       PRES   REMARKS
ARKADELPHIA    FAIR      81  74  79 VRB5      30.03S HX  86
CAMDEN         SUNNY     86  73  66 W3        30.03S HX  93
TEXARKANA      SUNNY     89  72  56 W8        30.02S HX  96
EL DORADO      SUNNY     86  76  71 SW7       30.04R HX  96
DE QUEEN       SUNNY     82  74  76 CALM      30.00S HX  88
$$

ARZ056-057-069-301700-
SOUTHEAST ARKANSAS

CITY           SKY/WX    TMP DP  RH WIND       PRES   REMARKS
PINE BLUFF     SUNNY     84  70  62 W8        30.02S HX  88
STUTTGART      MOSUNNY   84  73  70 SW7       30.02S HX  91
MONTICELLO     SUNNY     86  74  67 NW7       30.03S HX  94

$$






USA.gov is the U.S. government's official web portal to all federal, state and local government web resources and services.